Time,TemperatureF,DewpointF,PressureIn,WindDirection,WindDirectionDegrees,WindSpeedMPH,WindSpeedGustMPH,Humidity,HourlyPrecipIn,Conditions,Clouds,dailyrainin,SolarRadiationWatts/m^2,SoftwareType,DateUTC
2013-01-20 00:02:00,16.0,10.0,-100.00,SE,126,1.0,6.0,78,0.00,,,0.00,0.000000,,2013-01-20 07:02:00,
2013-01-20 00:12:00,16.0,10.0,-100.00,SE,126,1.0,6.0,78,0.00,,,0.00,0.000000,,2013-01-20 07:12:00,
2013-01-20 00:22:00,16.0,10.0,-100.00,SE,126,1.0,6.0,78,0.00,,,0.00,0.000000,,2013-01-20 07:22:00,
2013-01-20 00:52:00,17.0,12.0,-100.00,ENE,58,1.0,3.0,79,0.00,,,0.00,0.000000,,2013-01-20 07:52:00,
2013-01-20 01:02:00,17.0,12.0,-100.00,ENE,58,1.0,3.0,79,0.00,,,0.00,0.000000,,2013-01-20 08:02:00,
2013-01-20 01:12:00,17.0,12.0,-100.00,ENE,58,1.0,3.0,79,0.00,,,0.00,0.000000,,2013-01-20 08:12:00,
2013-01-20 01:22:00,17.0,12.0,-100.00,ENE,58,1.0,3.0,79,0.00,,,0.00,0.000000,,2013-01-20 08:22:00,
2013-01-20 01:53:00,18.0,13.0,-100.00,NNE,24,2.0,4.0,80,0.00,,,0.00,0.000000,,2013-01-20 08:53:00,
2013-01-20 02:02:00,18.0,13.0,-100.00,NNE,24,2.0,4.0,80,0.00,,,0.00,0.000000,,2013-01-20 09:02:00,
2013-01-20 02:12:00,18.0,13.0,-100.00,NNE,24,2.0,4.0,80,0.00,,,0.00,0.000000,,2013-01-20 09:12:00,
2013-01-20 02:22:00,18.0,13.0,-100.00,NNE,24,2.0,4.0,80,0.00,,,0.00,0.000000,,2013-01-20 09:22:00,
2013-01-20 02:42:00,18.0,14.0,-100.00,NNE,16,6.0,6.0,83,0.00,,,0.00,0.000000,,2013-01-20 09:42:00,
2013-01-20 02:53:00,18.0,14.0,-100.00,NNE,16,6.0,6.0,83,0.00,,,0.00,0.000000,,2013-01-20 09:53:00,
2013-01-20 03:02:00,18.0,14.0,-100.00,NNE,16,6.0,6.0,83,0.00,,,0.00,0.000000,,2013-01-20 10:02:00,
2013-01-20 03:12:00,18.0,14.0,-100.00,NNE,16,6.0,6.0,83,0.00,,,0.00,0.000000,,2013-01-20 10:12:00,
2013-01-20 03:22:00,18.0,14.0,-100.00,NNE,16,6.0,6.0,83,0.00,,,0.00,0.000000,,2013-01-20 10:22:00,
2013-01-20 03:52:00,17.0,14.0,-100.00,NNW,348,2.0,10.0,88,0.00,,,0.00,0.000000,,2013-01-20 10:52:00,
2013-01-20 04:02:00,17.0,14.0,-100.00,NNW,348,2.0,10.0,88,0.00,,,0.00,0.000000,,2013-01-20 11:02:00,
2013-01-20 04:12:00,17.0,14.0,-100.00,NNW,348,2.0,10.0,88,0.00,,,0.00,0.000000,,2013-01-20 11:12:00,
2013-01-20 04:22:00,17.0,14.0,-100.00,NNW,348,2.0,10.0,88,0.00,,,0.00,0.000000,,2013-01-20 11:22:00,
2013-01-20 04:53:00,15.0,12.0,-100.00,NNW,341,3.0,11.0,88,0.00,,,0.00,0.000000,,2013-01-20 11:53:00,
2013-01-20 05:03:00,15.0,12.0,-100.00,NNW,341,3.0,11.0,88,0.00,,,0.00,0.000000,,2013-01-20 12:03:00,
2013-01-20 05:12:00,15.0,12.0,-100.00,NNW,341,3.0,11.0,88,0.00,,,0.00,0.000000,,2013-01-20 12:12:00,
2013-01-20 05:23:00,15.0,12.0,-100.00,NNW,341,3.0,11.0,88,0.00,,,0.00,0.000000,,2013-01-20 12:23:00,
2013-01-20 05:53:00,14.0,11.0,-100.00,NW,319,6.0,9.0,87,0.00,,,0.00,0.000000,,2013-01-20 12:53:00,
2013-01-20 06:03:00,14.0,11.0,-100.00,NW,319,6.0,9.0,87,0.00,,,0.00,0.000000,,2013-01-20 13:03:00,
2013-01-20 06:12:00,14.0,11.0,-100.00,NW,319,6.0,9.0,87,0.00,,,0.00,0.000000,,2013-01-20 13:12:00,
2013-01-20 06:23:00,14.0,11.0,-100.00,NW,319,6.0,9.0,87,0.00,,,0.00,0.000000,,2013-01-20 13:23:00,
2013-01-20 06:53:00,14.0,10.0,-100.00,NNW,341,7.0,13.0,84,0.00,,,0.00,0.000000,,2013-01-20 13:53:00,
2013-01-20 07:02:00,14.0,10.0,-100.00,NNW,341,7.0,13.0,84,0.00,,,0.00,0.000000,,2013-01-20 14:02:00,
2013-01-20 07:12:00,14.0,10.0,-100.00,NNW,341,7.0,13.0,84,0.00,,,0.00,0.000000,,2013-01-20 14:12:00,
2013-01-20 07:23:00,14.0,10.0,-100.00,NNW,341,7.0,13.0,84,0.00,,,0.00,0.000000,,2013-01-20 14:23:00,
2013-01-20 07:53:00,12.0,7.0,-100.00,NNW,332,3.0,15.0,80,0.00,,,0.00,0.000000,,2013-01-20 14:53:00,
2013-01-20 08:03:00,12.0,7.0,-100.00,NNW,332,3.0,15.0,80,0.00,,,0.00,0.000000,,2013-01-20 15:03:00,
2013-01-20 08:12:00,12.0,7.0,-100.00,NNW,332,3.0,15.0,80,0.00,,,0.00,0.000000,,2013-01-20 15:12:00,
2013-01-20 08:23:00,12.0,7.0,-100.00,NNW,332,3.0,15.0,80,0.00,,,0.00,0.000000,,2013-01-20 15:23:00,
2013-01-20 08:53:00,9.0,3.0,-100.00,NW,319,5.0,17.0,75,0.00,,,0.00,0.000000,,2013-01-20 15:53:00,
2013-01-20 09:03:00,9.0,3.0,-100.00,NW,319,5.0,17.0,75,0.00,,,0.00,0.000000,,2013-01-20 16:03:00,
2013-01-20 09:12:00,9.0,3.0,-100.00,NW,319,5.0,17.0,75,0.00,,,0.00,0.000000,,2013-01-20 16:12:00,
2013-01-20 09:23:00,9.0,3.0,-100.00,NW,319,5.0,17.0,75,0.00,,,0.00,0.000000,,2013-01-20 16:23:00,
2013-01-20 09:53:00,9.0,2.0,-100.00,NNW,334,6.0,11.0,73,0.00,,,0.00,20.000000,,2013-01-20 16:53:00,
2013-01-20 10:03:00,9.0,2.0,-100.00,NNW,334,6.0,11.0,73,0.00,,,0.00,20.000000,,2013-01-20 17:03:00,
2013-01-20 10:12:00,9.0,2.0,-100.00,NNW,334,6.0,11.0,73,0.00,,,0.00,20.000000,,2013-01-20 17:12:00,
2013-01-20 10:22:00,9.0,2.0,-100.00,NNW,334,6.0,11.0,73,0.00,,,0.00,20.000000,,2013-01-20 17:22:00,
2013-01-20 10:53:00,8.0,1.0,-100.00,NNW,333,6.0,14.0,71,0.00,,,0.00,95.000000,,2013-01-20 17:53:00,
2013-01-20 11:03:00,8.0,1.0,-100.00,NNW,333,6.0,14.0,71,0.00,,,0.00,95.000000,,2013-01-20 18:03:00,
2013-01-20 11:13:00,8.0,1.0,-100.00,NNW,333,6.0,14.0,71,0.00,,,0.00,95.000000,,2013-01-20 18:13:00,
2013-01-20 11:23:00,8.0,1.0,-100.00,NNW,333,6.0,14.0,71,0.00,,,0.00,95.000000,,2013-01-20 18:23:00,
2013-01-20 11:53:00,8.0,-1.0,-100.00,NNW,340,6.0,14.0,66,0.00,,,0.00,179.000000,,2013-01-20 18:53:00,
2013-01-20 12:02:00,8.0,-1.0,-100.00,NNW,340,6.0,14.0,66,0.00,,,0.00,179.000000,,2013-01-20 19:02:00,
2013-01-20 12:12:00,8.0,-1.0,-100.00,NNW,340,6.0,14.0,66,0.00,,,0.00,179.000000,,2013-01-20 19:12:00,
2013-01-20 12:22:00,8.0,-1.0,-100.00,NNW,340,6.0,14.0,66,0.00,,,0.00,179.000000,,2013-01-20 19:22:00,
2013-01-20 12:53:00,8.0,-1.0,-100.00,NNW,336,8.0,14.0,65,0.00,,,0.00,287.000000,,2013-01-20 19:53:00,
2013-01-20 13:03:00,8.0,-1.0,-100.00,NNW,336,8.0,14.0,65,0.00,,,0.00,287.000000,,2013-01-20 20:03:00,
2013-01-20 13:12:00,8.0,-1.0,-100.00,NNW,336,8.0,14.0,65,0.00,,,0.00,287.000000,,2013-01-20 20:12:00,
2013-01-20 13:23:00,8.0,-1.0,-100.00,NNW,336,8.0,14.0,65,0.00,,,0.00,287.000000,,2013-01-20 20:23:00,
2013-01-20 13:53:00,6.0,-4.0,-100.00,NNW,344,7.0,18.0,63,0.00,,,0.00,351.000000,,2013-01-20 20:53:00,
2013-01-20 14:03:00,6.0,-4.0,-100.00,NNW,344,7.0,18.0,63,0.00,,,0.00,351.000000,,2013-01-20 21:03:00,
2013-01-20 14:13:00,6.0,-4.0,-100.00,NNW,344,7.0,18.0,63,0.00,,,0.00,351.000000,,2013-01-20 21:13:00,
2013-01-20 14:23:00,6.0,-4.0,-100.00,NNW,344,7.0,18.0,63,0.00,,,0.00,351.000000,,2013-01-20 21:23:00,
2013-01-20 14:43:00,4.0,-9.0,-100.00,NW,312,6.0,15.0,54,0.00,,,0.00,344.000000,,2013-01-20 21:43:00,
2013-01-20 14:53:00,4.0,-9.0,-100.00,NW,312,6.0,15.0,54,0.00,,,0.00,344.000000,,2013-01-20 21:53:00,
2013-01-20 15:03:00,4.0,-9.0,-100.00,NW,312,6.0,15.0,54,0.00,,,0.00,344.000000,,2013-01-20 22:03:00,
2013-01-20 15:12:00,4.0,-9.0,-100.00,NW,312,6.0,15.0,54,0.00,,,0.00,344.000000,,2013-01-20 22:12:00,
2013-01-20 15:22:00,4.0,-9.0,-100.00,NW,312,6.0,15.0,54,0.00,,,0.00,344.000000,,2013-01-20 22:22:00,
2013-01-20 15:53:00,8.0,-3.0,-100.00,NNW,343,6.0,14.0,60,0.00,,,0.00,491.000000,,2013-01-20 22:53:00,
2013-01-20 16:03:00,8.0,-3.0,-100.00,NNW,343,6.0,14.0,60,0.00,,,0.00,491.000000,,2013-01-20 23:03:00,
2013-01-20 16:13:00,8.0,-3.0,-100.00,NNW,343,6.0,14.0,60,0.00,,,0.00,491.000000,,2013-01-20 23:13:00,
2013-01-20 16:23:00,8.0,-3.0,-100.00,NNW,343,6.0,14.0,60,0.00,,,0.00,491.000000,,2013-01-20 23:23:00,
2013-01-20 16:43:00,2.0,-6.0,-100.00,NNW,332,4.0,16.0,68,0.00,,,0.00,201.000000,,2013-01-20 23:43:00,
2013-01-20 16:53:00,2.0,-6.0,-100.00,NNW,332,4.0,16.0,68,0.00,,,0.00,201.000000,,2013-01-20 23:53:00,
2013-01-20 17:03:00,2.0,-6.0,-100.00,NNW,332,4.0,16.0,68,0.00,,,0.00,201.000000,,2013-01-21 00:03:00,
2013-01-20 17:13:00,2.0,-6.0,-100.00,NNW,332,4.0,16.0,68,0.00,,,0.00,201.000000,,2013-01-21 00:13:00,
2013-01-20 17:22:00,2.0,-6.0,-100.00,NNW,332,4.0,16.0,68,0.00,,,0.00,201.000000,,2013-01-21 00:22:00,
2013-01-20 17:43:00,-1.0,-10.0,-100.00,NW,325,5.0,13.0,64,0.00,,,0.00,48.000000,,2013-01-21 00:43:00,
2013-01-20 17:54:00,-1.0,-10.0,-100.00,NW,325,5.0,13.0,64,0.00,,,0.00,48.000000,,2013-01-21 00:54:00,
2013-01-20 18:03:00,-1.0,-10.0,-100.00,NW,325,5.0,13.0,64,0.00,,,0.00,48.000000,,2013-01-21 01:03:00,
2013-01-20 18:13:00,-1.0,-10.0,-100.00,NW,325,5.0,13.0,64,0.00,,,0.00,48.000000,,2013-01-21 01:13:00,
2013-01-20 18:23:00,-1.0,-10.0,-100.00,NW,325,5.0,13.0,64,0.00,,,0.00,48.000000,,2013-01-21 01:23:00,
2013-01-20 18:53:00,-2.0,-12.0,-100.00,NW,307,5.0,13.0,62,0.00,,,0.00,4.000000,,2013-01-21 01:53:00,
2013-01-20 19:03:00,-2.0,-12.0,-100.00,NW,307,5.0,13.0,62,0.00,,,0.00,4.000000,,2013-01-21 02:03:00,
2013-01-20 19:12:00,-2.0,-12.0,-100.00,NW,307,5.0,13.0,62,0.00,,,0.00,4.000000,,2013-01-21 02:12:00,
2013-01-20 19:23:00,-2.0,-12.0,-100.00,NW,307,5.0,13.0,62,0.00,,,0.00,4.000000,,2013-01-21 02:23:00,
2013-01-20 19:53:00,-2.0,-12.0,-100.00,NW,309,3.0,14.0,62,0.00,,,0.00,0.000000,,2013-01-21 02:53:00,
2013-01-20 20:03:00,-2.0,-12.0,-100.00,NW,309,3.0,14.0,62,0.00,,,0.00,0.000000,,2013-01-21 03:03:00,
2013-01-20 20:13:00,-2.0,-12.0,-100.00,NW,309,3.0,14.0,62,0.00,,,0.00,0.000000,,2013-01-21 03:13:00,
2013-01-20 20:23:00,-2.0,-12.0,-100.00,NW,309,3.0,14.0,62,0.00,,,0.00,0.000000,,2013-01-21 03:23:00,
2013-01-20 20:53:00,-4.0,-12.0,-100.00,NW,320,2.0,15.0,66,0.00,,,-99.99,0.000000,,2013-01-21 03:53:00,
2013-01-20 21:03:00,-4.0,-12.0,-100.00,NW,320,2.0,15.0,66,0.00,,,-99.99,0.000000,,2013-01-21 04:03:00,
2013-01-20 21:12:00,-4.0,-12.0,-100.00,NW,320,2.0,15.0,66,0.00,,,-99.99,0.000000,,2013-01-21 04:12:00,
2013-01-20 21:23:00,-4.0,-12.0,-100.00,NW,320,2.0,15.0,66,0.00,,,-99.99,0.000000,,2013-01-21 04:23:00,
2013-01-20 21:53:00,-6.0,-12.0,-100.00,West,279,1.0,8.0,73,0.00,,,0.00,0.000000,,2013-01-21 04:53:00,
2013-01-20 22:03:00,-6.0,-12.0,-100.00,West,279,1.0,8.0,73,0.00,,,0.00,0.000000,,2013-01-21 05:03:00,
2013-01-20 22:12:00,-6.0,-12.0,-100.00,West,279,1.0,8.0,73,0.00,,,0.00,0.000000,,2013-01-21 05:12:00,
2013-01-20 22:22:00,-6.0,-12.0,-100.00,West,279,1.0,8.0,73,0.00,,,0.00,0.000000,,2013-01-21 05:22:00,
2013-01-20 22:43:00,-7.0,-16.0,-100.00,NW,304,6.0,7.0,64,0.00,,,0.00,0.000000,,2013-01-21 05:43:00,
2013-01-20 22:53:00,-7.0,-16.0,-100.00,NW,304,6.0,7.0,64,0.00,,,0.00,0.000000,,2013-01-21 05:53:00,
2013-01-20 23:03:00,-7.0,-16.0,-100.00,NW,304,6.0,7.0,64,0.00,,,0.00,0.000000,,2013-01-21 06:03:00,
2013-01-20 23:12:00,-7.0,-16.0,-100.00,NW,304,6.0,7.0,64,0.00,,,0.00,0.000000,,2013-01-21 06:12:00,
2013-01-20 23:23:00,-7.0,-16.0,-100.00,NW,304,6.0,7.0,64,0.00,,,0.00,0.000000,,2013-01-21 06:23:00,
2013-01-20 23:53:00,-4.0,-13.0,-100.00,WNW,302,3.0,13.0,65,0.00,,,0.00,0.000000,,2013-01-21 06:53:00,